Location: ????????
(56.1167°N, 38.6333°E)
Time: 20:48:27
(UTC+00:00)

Cosmos 2061 Rocket - Pass Details

Date: 18 November 2025
Orbit: 964 x 1013 km, 82.9° (Epoch: 06 December)

Event Time Altitude Azimuth Distance (km) Brightness Sun altitude
Rises 14:03:32 0° 169° (SSE) 3,689 7.2 -7.1°
Reaches altitude 10° 14:06:07 10° 164° (SSE) 2,737 6.5 -7.4°
Maximum altitude 14:12:07 50° 91° (E) 1,236 4.2 -8.2°
Drops below altitude 10° 14:18:05 10° 19° (NNE) 2,726 6.0 -9.0°
Sets 14:20:39 0° 14° (NNE) 3,673 6.7 -9.3°
